Regional Weather Roundup
Issued by NWS Glasgow, MT

Home | Current Version | Previous Version | Text Only | Print | Product List | Glossary On
Versions: 1 2 3 4 5 6 7 8 9 10 11 12 13 14 15 16 17 18 19 20 21 22 23 24 25 26 27 28 29 30 31 32 33 34 35 36 37 38 39 40 41 42 43 44 45 46 47 48 49 50
784
ASUS45 KGGW 251415
RWRGGW
HOURLY REGIONAL WEATHER ROUNDUP FOR NORTHEAST MONTANA
NATIONAL WEATHER SERVICE GLASGOW MONTANA
800 AM MDT WED APR 25 2018

NOTE: "FAIR" INDICATES FEW OR NO CLOUDS BELOW 12,000 FEET WITH NO
SIGNIFICANT WEATHER AND/OR OBSTRUCTIONS TO VISISBILITY.

NORTHEAST MONTANA


CITY           SKY/WX    TMP DP  RH WIND       PRES   REMARKS
GLASGOW        CLOUDY    44  35  70 SE5       29.99S
PLENTYWOOD       N/A     44  30  57 S10         N/A
WOLF POINT     CLOUDY    47  33  58 SW8       30.01F
JORDAN           N/A     46  32  58 N5        30.02F
WINNETT          N/A     44  32  62 S6G14       N/A
SIDNEY         CLOUDY    42  32  67 S17       30.05F
GLENDIVE       CLOUDY    40  32  73 S15       30.08F
MALTA            N/A     40  33  76 NE3G12      N/A

FORT PECK REPORTS


CITY           SKY/WX    TMP DP  RH WIND       PRES   REMARKS
FORT PECK        N/A     43  34  70 SE18        N/A
THE PINES        N/A     45  29  53 S7          N/A

SOUTHEAST MONTANA


CITY           SKY/WX    TMP DP  RH WIND       PRES   REMARKS
BILLINGS       PTSUNNY   45  29  53 SW17G26   30.12F
MILES CITY     PTSUNNY   40  33  76 S12       30.09F
BAKER          PTSUNNY   44  31  60 SW3       30.13F
LIVINGSTON     PTSUNNY   37  27  67 W12G22    30.16F

CENTRAL MONTANA


CITY           SKY/WX    TMP DP  RH WIND       PRES   REMARKS
HAVRE          CLOUDY    44  29  55 SW12      29.99S
LEWISTOWN      CLOUDY    38  26  62 E5        30.05F
GREAT FALLS    CLOUDY    49  23  36 S17G25    30.06R
CUT BANK       CLOUDY    49  22  34 W12       30.03S
HELENA         PTSUNNY   37  29  72 W5        30.16S
BUTTE          PTSUNNY   28  22  78 SE5       30.20F
BOZEMAN        PTSUNNY   32  28  85 E7        30.19F

WESTERN MONTANA


CITY           SKY/WX    TMP DP  RH WIND       PRES   REMARKS
MISSOULA       PTSUNNY   34  28  79 CALM      30.18R
KALISPELL      NOT AVBL

NORTH DAKOTA


CITY           SKY/WX    TMP DP  RH WIND       PRES   REMARKS
WILLISTON      CLOUDY    45  31  58 S13       30.03F
DICKINSON      SUNNY     47  28  47 SW16      30.10F
MINOT          MOSUNNY   49  30  48 SW20G25   30.05F
BISMARCK       SUNNY     45  31  58 SW9       30.18F

SOUTHERN SASKATCHEWAN


CITY           SKY/WX    TMP DP  RH WIND       PRES   REMARKS
REGINA         CLOUDY    48  30  49 SW10      29.85F
MOOSE JAW      CLOUDY    48  30  49 W20       29.85S
ESTEVAN        CLOUDY    45  30  57 SW21G29   29.95F
SWIFT CURRENT  PTSUNNY   48  25  40 W21G28    29.86S





USA.gov is the U.S. government's official web portal to all federal, state and local government web resources and services.